Regional Weather Roundup
Issued by NWS Portland, ME

Home | Current Version | Previous Version | Text Only | Print | Product List | Glossary On
Versions: 1 2 3 4 5 6 7 8 9 10 11 12 13 14 15 16 17 18 19 20 21 22 23 24 25 26 27 28 29 30 31 32 33 34 35 36 37 38 39 40 41 42 43 44 45 46 47 48 49 50
000
ASUS41 KGYX 031610
RWRGYX
WEATHER ROUNDUP FOR MAINE AND NEW HAMPSHIRE
NATIONAL WEATHER SERVICE GRAY ME
1200 PM EDT FRI JUL 03 2015

MEZ002-005-006-010-012-015-018-020-021-024-026-027-029-031700-
MAINE

CITY           SKY/WX    TMP DP  RH WIND       PRES   REMARKS
PORTLAND       MOSUNNY   76  45  33 SW8       29.93F
SANFORD        SUNNY     75  41  29 NW3       29.95S
BAR HARBOR     SUNNY     73  45  35 NW7       29.87F
WISCASSET      SUNNY     75  44  33 NW8       29.92F
ROCKLAND       SUNNY     73  48  40 W15       29.88S
FRYEBURG       SUNNY     75  45  34 N5        29.94S
LEWISTONAUBURN SUNNY     73  45  35 N12G18    29.93F
AUGUSTA        SUNNY     73  45  36 W12       29.91F
WATERVILLE     SUNNY     73  48  40 W9        29.87F
BANGOR         MOSUNNY   73  46  38 NW12G20   29.88S
GREENVILLE       N/A     68  39  34 NW10G25   29.87S
MILLINOCKET    MOSUNNY   74  44  34 W12G22    29.85S
HOULTON        SUNNY     72  44  36 W10G26    29.80S
PRESQUE ISLE   MOSUNNY   70  43  37 W10G20    29.78F
FRENCHVILLE    CLOUDY    64  46  52 W18G25    29.77R
CARIBOU        PTSUNNY   70  46  42 W8G23     29.77S
$$

NHZ002-005-008-009-011-012-014-031700-
NEW HAMPSHIRE

CITY           SKY/WX    TMP DP  RH WIND       PRES   REMARKS
PORTSMOUTH     MOSUNNY   76  44  32 VRB7      29.93F
ROCHESTER      SUNNY     75  45  34 N13G18    29.94F
NASHUA         SUNNY     75  45  34 N8        29.97F
MANCHESTER     MOSUNNY   74  42  31 NW8       29.95F
CONCORD        SUNNY     74  42  31 NW9       29.96F
LACONIA        SUNNY     72  45  37 NW9G16    29.95S
PLYMOUTH       FAIR      72  52  49 W8        29.96S
BERLIN         MOSUNNY   73  42  32 NW13G20   29.95F
WHITEFIELD     MOSUNNY   70  47  43 SW9       29.97F
JAFFREY        MOSUNNY   71  42  35 VRB3      29.99F
KEENE          SUNNY     72  43  35 NW3       29.99S
LEBANON        SUNNY     75  45  34 W9        29.97F
MT WASHINGTON  MOSUNNY   41  37  87 NW30G38     N/A
$$

VTZ005-007-008-031700-
VERMONT

CITY           SKY/WX    TMP DP  RH WIND       PRES   REMARKS
ST JOHNSBURY     N/A     73  45  36 MISG      29.95F
MONTPELIER     SUNNY     70  42  36 NW9G17    30.03S
BURLINGTON     SUNNY     74  46  36 VRB5      29.98F
$$

MAZ007-012-024-CTZ003-RIZ002-NYZ038-NYZ072-031700-
SOUTHERN NEW ENGLAND AND NY

CITY           SKY/WX    TMP DP  RH WIND       PRES   REMARKS
BOSTON         MOSUNNY   76  49  38 CALM      29.95F
WORCESTER      SUNNY     72  47  40 W5        29.99S
NANTUCKET      SUNNY     73  52  47 N15       29.95R
PROVIDENCE     MOSUNNY   76  50  40 NE6       29.96S
HARTFORD       MOSUNNY   75  47  36 VRB3      29.98R
ALBANY         MOSUNNY   73  43  33 CALM      30.01S
NEW YORK CITY  MOSUNNY   76  49  38 W3        29.99S
$$

ANZ081-ANZ082-ANZ150-NHZ014-MEZ023>029-031700-
COASTAL MARINE OBSERVATIONS

STATION/POSITION TIME  TEMP    WIND        PRES    WAVE
                       AIR SEA DIR/SP/G            HT/PER
                 (UTC) (F)     (DEG/KT/KT) (MB)    (FT/S)
MOUNT DESERT ROC 1600   60     240/ 14/ 15 1012.5F
MATINICUS ROCK   1500   59     270/ 12/ 12 1012.8F
ISLE OF SHOALS   1500   64     170/  3/  3 1013.8F
JEFFREYS LEDGE   1503      59                N/A     2/ 7
CASHES LEDGE BUO 1550   59 57              1013.1F   3/10
GEORGES BANK BUO 1550   59 58   30/  8/ 10 1011.9R   6/10
$$

.............KEY..............
   WCI - WIND CHILL
   TC  - TEMPERATURE IN CELSIUS
   VSB - VISIBILITY IN MILES
   HX  - HEAT INDEX
   FAIR- INDICATES FEW OR NO CLOUDS BELOW 12,000 FT, WITH NO
         SIGNIFICANT WEATHER AND/OR OBSTRUCTIONS TO VISIBILITY.





USA.gov is the U.S. government's official web portal to all federal, state and local government web resources and services.